Time,TemperatureF,DewpointF,PressureIn,WindDirection,WindDirectionDegrees,WindSpeedMPH,WindSpeedGustMPH,Humidity,HourlyPrecipIn,Conditions,Clouds,dailyrainin,SoftwareType,DateUTC
2013-03-02 00:00:00,34.8,21.3,29.92,SW,225,2.2,3.1,57,0.00,,,0.00,WUHU216HW,2013-03-02 05:00:00,
2013-03-02 00:01:00,34.8,21.3,29.92,SSE,158,0.0,3.1,57,0.00,,,0.00,WUHU216HW,2013-03-02 05:01:00,
2013-03-02 00:02:00,34.8,21.3,29.92,SSE,158,0.0,2.6,57,0.00,,,0.00,WUHU216HW,2013-03-02 05:02:00,
2013-03-02 00:07:00,34.8,21.3,29.92,SW,225,1.5,2.2,57,0.00,,,0.00,WUHU216HW,2013-03-02 05:07:00,
2013-03-02 00:12:00,34.8,20.8,29.92,SW,225,4.0,9.1,56,0.00,,,0.00,WUHU216HW,2013-03-02 05:12:00,
2013-03-02 00:17:00,34.8,20.8,29.92,SSW,203,1.5,9.1,56,0.00,,,0.00,WUHU216HW,2013-03-02 05:17:00,
2013-03-02 00:22:00,34.8,20.8,29.92,SW,225,0.8,5.3,56,0.00,,,0.00,WUHU216HW,2013-03-02 05:22:00,
2013-03-02 00:27:00,34.7,20.3,29.92,SW,225,4.6,7.6,55,0.00,,,0.00,WUHU216HW,2013-03-02 05:27:00,
2013-03-02 00:32:00,34.8,20.4,29.92,SSW,203,3.5,7.6,55,0.00,,,0.00,WUHU216HW,2013-03-02 05:32:00,
2013-03-02 00:37:00,34.7,20.3,29.92,SW,225,7.1,7.1,55,0.00,,,0.00,WUHU216HW,2013-03-02 05:37:00,
2013-03-02 00:42:00,34.7,20.3,29.92,South,180,0.0,7.1,55,0.00,,,0.00,WUHU216HW,2013-03-02 05:42:00,
2013-03-02 00:47:00,34.7,20.3,29.91,SW,225,3.3,4.2,55,0.00,,,0.00,WUHU216HW,2013-03-02 05:47:00,
2013-03-02 00:52:00,34.5,20.1,29.91,South,180,4.2,4.2,55,0.00,,,0.00,WUHU216HW,2013-03-02 05:52:00,
2013-03-02 00:57:00,34.5,19.7,29.91,SSE,158,8.2,8.2,54,0.00,,,0.00,WUHU216HW,2013-03-02 05:57:00,
2013-03-02 01:03:00,34.3,19.9,29.91,SSW,203,3.5,8.2,55,0.00,,,0.00,WUHU216HW,2013-03-02 06:03:00,
2013-03-02 01:08:00,34.3,19.9,29.91,SSW,206,3.8,8.2,55,0.00,,,0.00,WUHU216HW,2013-03-02 06:08:00,
2013-03-02 01:13:00,34.3,19.5,29.91,SSW,203,2.4,4.4,54,0.00,,,0.00,WUHU216HW,2013-03-02 06:13:00,
2013-03-02 01:18:00,34.3,19.9,29.91,SSW,203,0.0,3.3,55,0.00,,,0.00,WUHU216HW,2013-03-02 06:18:00,
2013-03-02 01:23:00,34.3,19.9,29.91,SE,135,7.8,7.8,55,0.00,,,0.00,WUHU216HW,2013-03-02 06:23:00,
2013-03-02 01:28:00,34.3,19.9,29.91,SSE,158,1.6,7.8,55,0.00,,,0.00,WUHU216HW,2013-03-02 06:28:00,
2013-03-02 01:33:00,34.3,19.9,29.91,WSW,248,4.9,7.8,55,0.00,,,0.00,WUHU216HW,2013-03-02 06:33:00,
2013-03-02 01:38:00,34.3,19.5,29.91,SSW,211,3.4,7.1,54,0.00,,,0.00,WUHU216HW,2013-03-02 06:38:00,
2013-03-02 01:43:00,34.3,19.5,29.91,SSW,203,1.7,7.1,54,0.00,,,0.00,WUHU216HW,2013-03-02 06:43:00,
2013-03-02 01:48:00,34.3,19.5,29.91,SW,225,1.5,2.6,54,0.00,,,0.00,WUHU216HW,2013-03-02 06:48:00,
2013-03-02 01:53:00,34.3,19.5,29.91,SSE,158,6.2,6.7,54,0.00,,,0.00,WUHU216HW,2013-03-02 06:53:00,
2013-03-02 01:58:00,34.3,19.0,29.91,SSW,203,4.6,8.0,53,0.00,,,0.00,WUHU216HW,2013-03-02 06:58:00,
2013-03-02 02:03:00,34.3,19.0,29.91,SSE,158,6.4,8.0,53,0.00,,,0.00,WUHU216HW,2013-03-02 07:03:00,
2013-03-02 02:08:00,34.3,19.0,29.91,South,180,2.9,6.4,53,0.00,,,0.00,WUHU216HW,2013-03-02 07:08:00,
2013-03-02 02:13:00,34.3,19.0,29.91,SSE,158,4.9,5.3,53,0.00,,,0.00,WUHU216HW,2013-03-02 07:13:00,
2013-03-02 02:18:00,34.3,19.0,29.91,SSW,203,2.2,5.3,53,0.00,,,0.00,WUHU216HW,2013-03-02 07:18:00,
2013-03-02 02:23:00,34.3,19.0,29.91,SSW,203,0.8,2.6,53,0.00,,,0.00,WUHU216HW,2013-03-02 07:23:00,
2013-03-02 02:29:00,34.3,19.5,29.90,South,180,3.1,3.1,54,0.00,,,0.00,WUHU216HW,2013-03-02 07:29:00,
2013-03-02 02:34:00,34.3,19.5,29.90,SSW,203,1.3,3.1,54,0.00,,,0.00,WUHU216HW,2013-03-02 07:34:00,
2013-03-02 02:39:00,34.1,18.8,29.90,SSE,158,2.4,5.1,53,0.00,,,0.00,WUHU216HW,2013-03-02 07:39:00,
2013-03-02 02:44:00,34.1,19.3,29.90,SSE,158,2.6,5.1,54,0.00,,,0.00,WUHU216HW,2013-03-02 07:44:00,
2013-03-02 02:49:00,34.1,19.3,29.90,SE,135,2.9,2.9,54,0.00,,,0.00,WUHU216HW,2013-03-02 07:49:00,
2013-03-02 02:54:00,34.1,19.3,29.90,SSE,158,2.6,2.9,54,0.00,,,0.00,WUHU216HW,2013-03-02 07:54:00,
2013-03-02 02:59:00,34.1,19.3,29.90,South,180,3.5,7.8,54,0.00,,,0.00,WUHU216HW,2013-03-02 07:59:00,
2013-03-02 03:04:00,34.1,19.3,29.90,SSE,158,2.4,7.8,54,0.00,,,0.00,WUHU216HW,2013-03-02 08:04:00,
2013-03-02 03:09:00,33.9,19.1,29.90,SSE,158,0.0,3.5,54,0.00,,,0.00,WUHU216HW,2013-03-02 08:09:00,
2013-03-02 03:14:00,33.9,19.1,29.89,SSE,163,3.8,5.5,54,0.00,,,0.00,WUHU216HW,2013-03-02 08:14:00,
2013-03-02 03:19:00,33.9,19.1,29.89,South,180,1.6,5.5,54,0.00,,,0.00,WUHU216HW,2013-03-02 08:19:00,
2013-03-02 03:24:00,33.9,19.1,29.89,South,180,2.9,5.3,54,0.00,,,0.00,WUHU216HW,2013-03-02 08:24:00,
2013-03-02 03:29:00,33.9,19.1,29.89,South,180,0.0,5.3,54,0.00,,,0.00,WUHU216HW,2013-03-02 08:29:00,
2013-03-02 03:34:00,33.9,19.6,29.89,South,180,0.0,1.5,55,0.00,,,0.00,WUHU216HW,2013-03-02 08:34:00,
2013-03-02 03:39:00,33.9,19.1,29.89,SE,139,3.3,5.5,54,0.00,,,0.00,WUHU216HW,2013-03-02 08:39:00,
2013-03-02 03:45:00,33.9,19.6,29.89,SSE,158,4.0,5.5,55,0.00,,,0.00,WUHU216HW,2013-03-02 08:45:00,
2013-03-02 03:50:00,33.8,19.0,29.89,SSE,158,2.2,4.9,54,0.00,,,0.00,WUHU216HW,2013-03-02 08:50:00,
2013-03-02 03:55:00,33.8,19.0,29.89,SSE,158,6.4,6.4,54,0.00,,,0.00,WUHU216HW,2013-03-02 08:55:00,
2013-03-02 04:00:00,33.8,19.0,29.89,South,180,0.8,6.4,54,0.00,,,0.00,WUHU216HW,2013-03-02 09:00:00,
2013-03-02 04:05:00,33.8,19.5,29.89,South,180,1.3,6.4,55,0.00,,,0.00,WUHU216HW,2013-03-02 09:05:00,
2013-03-02 04:10:00,33.8,19.5,29.89,South,180,1.1,4.6,55,0.00,,,0.00,WUHU216HW,2013-03-02 09:10:00,
2013-03-02 04:15:00,33.6,19.3,29.89,SE,135,0.0,4.6,55,0.00,,,0.00,WUHU216HW,2013-03-02 09:15:00,
2013-03-02 04:20:00,33.8,19.5,29.89,SSE,158,0.6,3.5,55,0.00,,,0.00,WUHU216HW,2013-03-02 09:20:00,
2013-03-02 04:25:00,33.6,19.3,29.89,SSE,158,1.8,6.0,55,0.00,,,0.00,WUHU216HW,2013-03-02 09:25:00,
2013-03-02 04:30:00,33.6,19.3,29.89,SSE,158,0.8,6.0,55,0.00,,,0.00,WUHU216HW,2013-03-02 09:30:00,
2013-03-02 04:35:00,33.6,19.3,29.89,South,180,1.1,4.6,55,0.00,,,0.00,WUHU216HW,2013-03-02 09:35:00,
2013-03-02 04:40:00,33.6,19.3,29.89,SE,135,3.8,6.0,55,0.00,,,0.00,WUHU216HW,2013-03-02 09:40:00,
2013-03-02 04:45:00,33.6,19.3,29.89,SSW,203,0.4,7.8,55,0.00,,,0.00,WUHU216HW,2013-03-02 09:45:00,
2013-03-02 04:50:00,33.6,19.3,29.89,SSW,203,0.0,7.8,55,0.00,,,0.00,WUHU216HW,2013-03-02 09:50:00,
2013-03-02 04:55:00,33.6,19.3,29.89,South,180,0.6,2.9,55,0.00,,,0.00,WUHU216HW,2013-03-02 09:55:00,
2013-03-02 05:00:00,33.6,19.3,29.89,South,180,0.6,1.3,55,0.00,,,0.00,WUHU216HW,2013-03-02 10:00:00,
2013-03-02 05:06:00,33.6,19.3,29.89,SSE,165,2.9,3.8,55,0.00,,,0.00,WUHU216HW,2013-03-02 10:06:00,
2013-03-02 05:11:00,33.6,19.3,29.89,South,173,1.3,3.8,55,0.00,,,0.00,WUHU216HW,2013-03-02 10:11:00,
2013-03-02 05:16:00,33.6,19.3,29.89,SSE,158,1.7,2.0,55,0.00,,,0.00,WUHU216HW,2013-03-02 10:16:00,
2013-03-02 05:21:00,33.6,19.3,29.88,ESE,113,6.2,6.2,55,0.00,,,0.00,WUHU216HW,2013-03-02 10:21:00,
2013-03-02 05:26:00,33.6,19.3,29.89,SSE,158,5.3,7.3,55,0.00,,,0.00,WUHU216HW,2013-03-02 10:26:00,
2013-03-02 05:32:00,33.6,19.3,29.89,SSE,158,2.6,7.3,55,0.00,,,0.00,WUHU216HW,2013-03-02 10:32:00,
2013-03-02 05:37:00,33.6,19.3,29.89,SE,135,4.4,4.4,55,0.00,,,0.00,WUHU216HW,2013-03-02 10:37:00,
2013-03-02 05:42:00,33.6,19.3,29.89,South,178,1.4,5.8,55,0.00,,,0.00,WUHU216HW,2013-03-02 10:42:00,
2013-03-02 05:47:00,33.6,19.3,29.89,SSW,210,1.9,5.8,55,0.00,,,0.00,WUHU216HW,2013-03-02 10:47:00,
2013-03-02 05:52:00,33.4,19.1,29.89,SSE,158,3.8,3.8,55,0.00,,,0.00,WUHU216HW,2013-03-02 10:52:00,
2013-03-02 05:57:00,33.4,19.1,29.89,SSE,158,4.4,4.6,55,0.00,,,0.00,WUHU216HW,2013-03-02 10:57:00,
2013-03-02 06:02:00,33.4,19.5,29.89,South,180,2.6,4.6,56,0.00,,,0.00,WUHU216HW,2013-03-02 11:02:00,
2013-03-02 06:07:00,33.4,19.5,29.89,SSW,203,0.6,2.6,56,0.00,,,0.00,WUHU216HW,2013-03-02 11:07:00,
2013-03-02 06:12:00,33.4,19.5,29.89,SSW,203,0.0,1.1,56,0.00,,,0.00,WUHU216HW,2013-03-02 11:12:00,
2013-03-02 06:17:00,33.4,19.5,29.89,SSW,203,0.0,1.5,56,0.00,,,0.00,WUHU216HW,2013-03-02 11:17:00,
2013-03-02 06:22:00,33.4,19.5,29.89,SSW,203,3.8,3.8,56,0.00,,,0.00,WUHU216HW,2013-03-02 11:22:00,
2013-03-02 06:27:00,33.4,19.9,29.89,SSW,203,0.8,3.8,57,0.00,,,0.00,WUHU216HW,2013-03-02 11:27:00,
2013-03-02 06:32:00,33.2,19.8,29.89,WSW,248,3.8,3.8,57,0.00,,,0.00,WUHU216HW,2013-03-02 11:32:00,
2013-03-02 06:38:00,33.0,19.6,29.89,SW,225,1.8,3.8,57,0.00,,,0.00,WUHU216HW,2013-03-02 11:38:00,
2013-03-02 06:43:00,33.0,19.6,29.89,SW,225,2.4,3.8,57,0.00,,,0.00,WUHU216HW,2013-03-02 11:43:00,
2013-03-02 06:48:00,33.0,19.6,29.90,SW,225,1.7,2.4,57,0.00,,,0.00,WUHU216HW,2013-03-02 11:48:00,
2013-03-02 06:53:00,33.0,20.0,29.89,SW,225,1.7,2.4,58,0.00,,,0.00,WUHU216HW,2013-03-02 11:53:00,
2013-03-02 06:58:00,32.9,19.9,29.89,SW,225,2.0,2.4,58,0.00,,,0.00,WUHU216HW,2013-03-02 11:58:00,
2013-03-02 07:03:00,33.0,20.0,29.89,SW,225,3.3,3.3,58,0.00,,,0.00,WUHU216HW,2013-03-02 12:03:00,
2013-03-02 07:08:00,32.9,19.9,29.89,SW,225,1.3,3.3,58,0.00,,,0.00,WUHU216HW,2013-03-02 12:08:00,
2013-03-02 07:13:00,32.9,19.9,29.89,SW,225,3.3,3.3,58,0.00,,,0.00,WUHU216HW,2013-03-02 12:13:00,
2013-03-02 07:18:00,32.9,19.9,29.89,SW,225,3.3,3.3,58,0.00,,,0.00,WUHU216HW,2013-03-02 12:18:00,
2013-03-02 07:23:00,32.9,19.9,29.89,SW,225,3.1,3.3,58,0.00,,,0.00,WUHU216HW,2013-03-02 12:23:00,
2013-03-02 07:28:00,32.9,19.9,29.89,SW,225,2.2,3.3,58,0.00,,,0.00,WUHU216HW,2013-03-02 12:28:00,
2013-03-02 07:33:00,33.0,20.0,29.90,SW,225,4.0,6.0,58,0.00,,,0.00,WUHU216HW,2013-03-02 12:33:00,
2013-03-02 07:38:00,33.0,20.0,29.89,SW,225,1.7,6.0,58,0.00,,,0.00,WUHU216HW,2013-03-02 12:38:00,
2013-03-02 07:43:00,33.0,20.0,29.90,SW,225,2.2,4.0,58,0.00,,,0.00,WUHU216HW,2013-03-02 12:43:00,
2013-03-02 07:49:00,33.0,20.0,29.90,SW,225,0.2,5.1,58,0.00,,,0.00,WUHU216HW,2013-03-02 12:49:00,
2013-03-02 07:54:00,33.4,20.8,29.90,SW,225,0.6,5.1,59,0.00,,,0.00,WUHU216HW,2013-03-02 12:54:00,
2013-03-02 07:59:00,33.2,20.6,29.90,SW,225,3.1,3.3,59,0.00,,,0.00,WUHU216HW,2013-03-02 12:59:00,
2013-03-02 08:04:00,33.2,20.6,29.90,SW,225,2.7,3.3,59,0.00,,,0.00,WUHU216HW,2013-03-02 13:04:00,
2013-03-02 08:09:00,33.2,20.6,29.90,SW,225,2.4,3.5,59,0.00,,,0.00,WUHU216HW,2013-03-02 13:09:00,
2013-03-02 08:14:00,33.4,20.8,29.91,SSW,203,1.7,3.5,59,0.00,,,0.00,WUHU216HW,2013-03-02 13:14:00,
2013-03-02 08:19:00,33.6,21.0,29.91,SSW,203,0.0,1.7,59,0.00,,,0.00,WUHU216HW,2013-03-02 13:19:00,
2013-03-02 08:24:00,33.6,21.0,29.90,South,180,0.6,1.1,59,0.00,,,0.00,WUHU216HW,2013-03-02 13:24:00,
2013-03-02 08:29:00,33.6,21.0,29.90,SSE,158,1.9,4.2,59,0.00,,,0.00,WUHU216HW,2013-03-02 13:29:00,
2013-03-02 08:34:00,33.8,21.1,29.90,SSE,158,1.3,4.2,59,0.00,,,0.00,WUHU216HW,2013-03-02 13:34:00,
2013-03-02 08:39:00,33.8,21.1,29.91,SSE,158,2.4,2.4,59,0.00,,,0.00,WUHU216HW,2013-03-02 13:39:00,
2013-03-02 08:44:00,33.8,21.1,29.91,SSE,158,2.0,2.4,59,0.00,,,0.00,WUHU216HW,2013-03-02 13:44:00,
2013-03-02 08:49:00,33.8,21.1,29.91,SE,135,2.0,4.0,59,0.00,,,0.00,WUHU216HW,2013-03-02 13:49:00,
2013-03-02 08:54:00,33.8,21.1,29.90,South,180,3.3,4.0,59,0.00,,,0.00,WUHU216HW,2013-03-02 13:54:00,
2013-03-02 08:59:00,33.8,21.1,29.91,SSE,158,3.3,3.5,59,0.00,,,0.00,WUHU216HW,2013-03-02 13:59:00,
2013-03-02 09:04:00,33.6,21.0,29.90,SE,135,4.0,4.0,59,0.00,,,0.00,WUHU216HW,2013-03-02 14:04:00,
2013-03-02 09:09:00,33.6,21.0,29.91,SE,135,2.6,4.0,59,0.00,,,0.00,WUHU216HW,2013-03-02 14:09:00,
2013-03-02 09:14:00,33.9,21.2,29.90,SE,135,2.0,3.5,59,0.00,,,0.00,WUHU216HW,2013-03-02 14:14:00,
2013-03-02 09:19:00,34.1,21.4,29.90,SSE,158,4.4,4.4,59,0.00,,,0.00,WUHU216HW,2013-03-02 14:19:00,
2013-03-02 09:25:00,33.8,21.1,29.91,SE,143,3.8,6.2,59,0.00,,,0.00,WUHU216HW,2013-03-02 14:25:00,
2013-03-02 09:30:00,33.8,21.1,29.90,SW,225,4.9,6.2,59,0.00,,,0.00,WUHU216HW,2013-03-02 14:30:00,
2013-03-02 09:35:00,33.8,21.1,29.90,SW,225,4.6,5.8,59,0.00,,,0.00,WUHU216HW,2013-03-02 14:35:00,
2013-03-02 09:40:00,33.9,21.6,29.90,SSE,158,4.2,5.8,60,0.00,,,0.00,WUHU216HW,2013-03-02 14:40:00,
2013-03-02 09:45:00,33.8,21.5,29.91,SSE,158,5.3,5.3,60,0.00,,,0.00,WUHU216HW,2013-03-02 14:45:00,
2013-03-02 09:50:00,33.6,21.4,29.90,SSE,158,0.4,5.3,60,0.00,,,0.00,WUHU216HW,2013-03-02 14:50:00,
2013-03-02 09:55:00,33.6,21.4,29.90,SSW,203,1.5,1.5,60,0.00,,,0.00,WUHU216HW,2013-03-02 14:55:00,
2013-03-02 10:00:00,33.8,21.5,29.91,SSW,203,1.7,2.0,60,0.00,,,0.00,WUHU216HW,2013-03-02 15:00:00,
2013-03-02 10:05:00,33.8,21.9,29.90,South,180,1.5,3.3,61,0.00,,,0.00,WUHU216HW,2013-03-02 15:05:00,
2013-03-02 10:10:00,33.6,21.8,29.90,SSE,154,3.8,6.4,61,0.00,,,0.00,WUHU216HW,2013-03-02 15:10:00,
2013-03-02 10:15:00,33.8,21.9,29.90,South,180,0.8,6.4,61,0.00,,,0.00,WUHU216HW,2013-03-02 15:15:00,
2013-03-02 10:20:00,33.8,21.9,29.90,SSE,158,0.0,3.5,61,0.00,,,0.00,WUHU216HW,2013-03-02 15:20:00,
2013-03-02 10:25:00,33.8,21.9,29.90,SSE,158,3.8,3.8,61,0.00,,,0.00,WUHU216HW,2013-03-02 15:25:00,
2013-03-02 10:30:00,33.9,22.0,29.90,SSE,158,2.0,3.8,61,0.00,,,0.00,WUHU216HW,2013-03-02 15:30:00,
2013-03-02 10:35:00,34.3,22.4,29.90,South,180,0.4,2.0,61,0.00,,,0.00,WUHU216HW,2013-03-02 15:35:00,
2013-03-02 10:40:00,34.3,22.4,29.90,SW,225,3.8,3.8,61,0.00,,,0.00,WUHU216HW,2013-03-02 15:40:00,
2013-03-02 10:45:00,34.3,22.4,29.90,SSW,200,2.8,3.8,61,0.00,,,0.00,WUHU216HW,2013-03-02 15:45:00,
2013-03-02 10:51:00,34.3,22.4,29.90,South,180,0.2,3.5,61,0.00,,,0.00,WUHU216HW,2013-03-02 15:51:00,
2013-03-02 10:56:00,34.3,22.4,29.90,South,180,1.1,2.2,61,0.00,,,0.00,WUHU216HW,2013-03-02 15:56:00,
2013-03-02 11:01:00,34.3,22.4,29.90,WSW,248,3.3,3.3,61,0.00,,,0.00,WUHU216HW,2013-03-02 16:01:00,
2013-03-02 11:06:00,34.5,23.0,29.90,SW,225,0.8,3.3,62,0.00,,,0.00,WUHU216HW,2013-03-02 16:06:00,
2013-03-02 11:11:00,34.7,23.2,29.90,SW,225,4.2,6.7,62,0.00,,,0.00,WUHU216HW,2013-03-02 16:11:00,
2013-03-02 11:16:00,34.5,23.0,29.89,SW,225,6.4,6.7,62,0.00,,,0.00,WUHU216HW,2013-03-02 16:16:00,
2013-03-02 11:21:00,34.7,23.2,29.90,SW,225,6.4,6.4,62,0.00,,,0.00,WUHU216HW,2013-03-02 16:21:00,
2013-03-02 11:26:00,34.3,22.4,29.90,WSW,248,5.1,6.4,61,0.00,,,0.00,WUHU216HW,2013-03-02 16:26:00,
2013-03-02 11:31:00,34.5,23.0,29.89,SW,225,2.8,6.4,62,0.00,,,0.00,WUHU216HW,2013-03-02 16:31:00,
2013-03-02 11:36:00,35.2,23.3,29.90,SW,225,2.4,3.3,61,0.00,,,0.00,WUHU216HW,2013-03-02 16:36:00,
2013-03-02 11:41:00,35.4,23.5,29.89,SW,225,4.6,4.6,61,0.00,,,0.00,WUHU216HW,2013-03-02 16:41:00,
2013-03-02 11:46:00,36.3,24.3,29.89,SW,225,1.3,4.6,61,0.00,,,0.00,WUHU216HW,2013-03-02 16:46:00,
2013-03-02 11:51:00,37.5,24.6,29.89,WSW,248,4.0,4.4,59,0.00,,,0.00,WUHU216HW,2013-03-02 16:51:00,
2013-03-02 11:56:00,37.5,23.8,29.89,WSW,248,2.4,4.4,57,0.00,,,0.00,WUHU216HW,2013-03-02 16:56:00,
2013-03-02 12:01:00,37.9,24.2,29.88,West,270,0.0,5.3,57,0.00,,,0.00,WUHU216HW,2013-03-02 17:01:00,
2013-03-02 12:06:00,37.9,24.2,29.88,SSW,203,1.1,5.3,57,0.00,,,0.00,WUHU216HW,2013-03-02 17:06:00,
2013-03-02 12:11:00,37.5,22.9,29.88,South,181,6.1,6.2,55,0.00,,,0.00,WUHU216HW,2013-03-02 17:11:00,
2013-03-02 12:16:00,37.0,22.5,29.88,SW,225,8.7,8.7,55,0.00,,,0.00,WUHU216HW,2013-03-02 17:16:00,
2013-03-02 12:22:00,36.5,22.4,29.87,SSW,203,5.5,8.7,56,0.00,,,0.00,WUHU216HW,2013-03-02 17:22:00,
2013-03-02 12:27:00,36.1,22.0,29.87,WSW,248,4.9,6.2,56,0.00,,,0.00,WUHU216HW,2013-03-02 17:27:00,
2013-03-02 12:32:00,36.1,22.0,29.87,SSW,203,2.9,6.2,56,0.00,,,0.00,WUHU216HW,2013-03-02 17:32:00,
2013-03-02 12:37:00,36.1,22.0,29.87,SSE,158,6.0,6.0,56,0.00,,,0.00,WUHU216HW,2013-03-02 17:37:00,
2013-03-02 12:42:00,35.7,21.7,29.87,SW,225,5.1,6.0,56,0.00,,,0.00,WUHU216HW,2013-03-02 17:42:00,
2013-03-02 12:47:00,35.7,21.7,29.87,SSE,158,6.9,6.9,56,0.00,,,0.00,WUHU216HW,2013-03-02 17:47:00,
2013-03-02 12:52:00,35.7,22.1,29.87,ESE,113,2.0,6.9,57,0.00,,,0.00,WUHU216HW,2013-03-02 17:52:00,
2013-03-02 12:57:00,35.7,22.1,29.86,SSE,158,7.8,7.8,57,0.00,,,0.00,WUHU216HW,2013-03-02 17:57:00,
2013-03-02 13:02:00,35.7,21.7,29.86,SE,135,6.2,7.8,56,0.00,,,0.00,WUHU216HW,2013-03-02 18:02:00,
2013-03-02 13:07:00,35.4,21.8,29.86,SE,135,5.3,7.8,57,0.00,,,0.00,WUHU216HW,2013-03-02 18:07:00,
2013-03-02 13:12:00,35.4,21.8,29.86,SSE,148,6.8,8.2,57,0.00,,,0.00,WUHU216HW,2013-03-02 18:12:00,
2013-03-02 13:17:00,35.4,21.4,29.86,ESE,114,6.1,8.2,56,0.00,,,0.00,WUHU216HW,2013-03-02 18:17:00,
2013-03-02 13:22:00,35.6,21.6,29.85,SE,135,5.5,6.7,56,0.00,,,0.00,WUHU216HW,2013-03-02 18:22:00,
2013-03-02 13:27:00,35.7,22.1,29.85,ESE,113,0.0,6.7,57,0.00,,,0.00,WUHU216HW,2013-03-02 18:27:00,
2013-03-02 13:32:00,36.5,22.9,29.85,East,99,3.5,7.3,57,0.00,,,0.00,WUHU216HW,2013-03-02 18:32:00,
2013-03-02 13:38:00,37.2,23.5,29.86,East,90,1.1,7.3,57,0.00,,,0.00,WUHU216HW,2013-03-02 18:38:00,
2013-03-02 13:43:00,37.5,22.9,29.85,SSE,158,6.2,6.2,55,0.00,,,0.00,WUHU216HW,2013-03-02 18:43:00,
2013-03-02 13:48:00,37.5,22.9,29.85,SSE,158,0.0,6.2,55,0.00,,,0.00,WUHU216HW,2013-03-02 18:48:00,
2013-03-02 13:53:00,37.9,22.9,29.85,SE,135,4.4,4.6,54,0.00,,,0.00,WUHU216HW,2013-03-02 18:53:00,
2013-03-02 13:58:00,37.5,22.5,29.85,SE,135,5.1,5.1,54,0.00,,,0.00,WUHU216HW,2013-03-02 18:58:00,
2013-03-02 14:03:00,37.2,22.2,29.85,SW,225,5.8,7.6,54,0.00,,,0.00,WUHU216HW,2013-03-02 19:03:00,
2013-03-02 14:08:00,37.5,22.5,29.85,South,180,0.0,7.6,54,0.00,,,0.00,WUHU216HW,2013-03-02 19:08:00,
2013-03-02 14:13:00,37.9,22.9,29.85,SSW,203,2.6,4.0,54,0.00,,,0.00,WUHU216HW,2013-03-02 19:13:00,
2013-03-02 14:18:00,38.3,22.8,29.85,SSW,203,2.4,4.0,53,0.00,,,0.00,WUHU216HW,2013-03-02 19:18:00,
2013-03-02 14:23:00,38.1,22.1,29.84,SSW,203,0.0,7.8,52,0.00,,,0.00,WUHU216HW,2013-03-02 19:23:00,
2013-03-02 14:28:00,37.9,21.9,29.84,SW,225,3.1,7.8,52,0.00,,,0.00,WUHU216HW,2013-03-02 19:28:00,
2013-03-02 14:34:00,38.1,22.6,29.84,SE,135,6.7,6.7,53,0.00,,,0.00,WUHU216HW,2013-03-02 19:34:00,
2013-03-02 14:39:00,38.1,22.1,29.84,SSE,158,8.0,8.0,52,0.00,,,0.00,WUHU216HW,2013-03-02 19:39:00,
2013-03-02 14:44:00,38.1,22.1,29.84,SE,135,4.9,8.2,52,0.00,,,0.00,WUHU216HW,2013-03-02 19:44:00,
2013-03-02 14:49:00,37.9,21.9,29.84,SW,225,4.0,8.2,52,0.00,,,0.00,WUHU216HW,2013-03-02 19:49:00,
2013-03-02 14:54:00,37.9,21.9,29.84,South,182,1.9,6.2,52,0.00,,,0.00,WUHU216HW,2013-03-02 19:54:00,
2013-03-02 14:59:00,37.9,21.9,29.84,South,174,4.8,6.9,52,0.00,,,0.00,WUHU216HW,2013-03-02 19:59:00,
2013-03-02 15:04:00,37.9,21.9,29.84,SW,225,1.1,6.9,52,0.00,,,0.00,WUHU216HW,2013-03-02 20:04:00,
2013-03-02 15:09:00,37.9,21.9,29.84,SE,135,4.4,5.5,52,0.00,,,0.00,WUHU216HW,2013-03-02 20:09:00,
2013-03-02 15:14:00,38.1,22.1,29.84,SE,135,7.1,7.1,52,0.00,,,0.00,WUHU216HW,2013-03-02 20:14:00,
2013-03-02 15:19:00,38.3,21.8,29.84,SSW,203,2.0,7.1,51,0.00,,,0.00,WUHU216HW,2013-03-02 20:19:00,
2013-03-02 15:24:00,38.1,21.6,29.84,South,175,2.0,10.5,51,0.00,,,0.00,WUHU216HW,2013-03-02 20:24:00,
2013-03-02 15:29:00,37.9,21.5,29.84,SW,225,4.1,10.5,51,0.00,,,0.00,WUHU216HW,2013-03-02 20:29:00,
2013-03-02 15:34:00,37.9,21.5,29.83,SE,135,7.3,7.3,51,0.00,,,0.00,WUHU216HW,2013-03-02 20:34:00,
2013-03-02 15:39:00,38.3,22.3,29.83,SSE,158,5.5,7.3,52,0.00,,,0.00,WUHU216HW,2013-03-02 20:39:00,
2013-03-02 15:44:00,38.3,21.8,29.84,SSW,203,5.1,5.5,51,0.00,,,0.00,WUHU216HW,2013-03-02 20:44:00,
2013-03-02 15:49:00,38.1,22.1,29.83,WSW,237,5.4,6.0,52,0.00,,,0.00,WUHU216HW,2013-03-02 20:49:00,
2013-03-02 15:54:00,37.9,21.9,29.84,SW,225,6.4,6.4,52,0.00,,,0.00,WUHU216HW,2013-03-02 20:54:00,
2013-03-02 16:00:00,37.9,21.9,29.84,SW,225,11.8,11.8,52,0.00,,,0.00,WUHU216HW,2013-03-02 21:00:00,
2013-03-02 16:05:00,37.7,21.7,29.84,SW,225,5.3,11.8,52,0.00,,,0.00,WUHU216HW,2013-03-02 21:05:00,
2013-03-02 16:10:00,37.5,21.6,29.84,SW,225,6.4,8.9,52,0.00,,,0.00,WUHU216HW,2013-03-02 21:10:00,
2013-03-02 16:15:00,37.4,21.5,29.84,SW,225,2.9,8.9,52,0.00,,,0.00,WUHU216HW,2013-03-02 21:15:00,
2013-03-02 16:20:00,37.0,20.6,29.84,WSW,237,5.7,8.9,51,0.00,,,0.00,WUHU216HW,2013-03-02 21:20:00,
2013-03-02 16:25:00,36.8,20.9,29.84,SSW,203,4.4,8.9,52,0.00,,,0.00,WUHU216HW,2013-03-02 21:25:00,
2013-03-02 16:30:00,36.6,20.2,29.85,SW,225,11.8,11.8,51,0.00,,,0.00,WUHU216HW,2013-03-02 21:30:00,
2013-03-02 16:35:00,36.3,20.4,29.84,SW,225,2.4,11.8,52,0.00,,,0.00,WUHU216HW,2013-03-02 21:35:00,
2013-03-02 16:40:00,36.3,20.4,29.85,SSW,203,4.0,5.3,52,0.00,,,0.00,WUHU216HW,2013-03-02 21:40:00,
2013-03-02 16:45:00,36.3,20.4,29.85,SW,225,6.4,6.4,52,0.00,,,0.00,WUHU216HW,2013-03-02 21:45:00,
2013-03-02 16:50:00,36.3,20.4,29.85,SSE,158,0.0,6.4,52,0.00,,,0.00,WUHU216HW,2013-03-02 21:50:00,
2013-03-02 16:55:00,36.3,20.4,29.85,SSW,203,2.6,4.4,52,0.00,,,0.00,WUHU216HW,2013-03-02 21:55:00,
2013-03-02 17:01:00,36.1,20.3,29.86,SW,225,5.6,6.7,52,0.00,,,0.00,WUHU216HW,2013-03-02 22:01:00,
2013-03-02 17:06:00,35.7,19.9,29.86,WSW,248,4.2,6.7,52,0.00,,,0.00,WUHU216HW,2013-03-02 22:06:00,
2013-03-02 17:11:00,35.7,19.9,29.86,SW,225,5.5,10.2,52,0.00,,,0.00,WUHU216HW,2013-03-02 22:11:00,
2013-03-02 17:16:00,35.7,19.9,29.86,SSW,213,3.2,10.2,52,0.00,,,0.00,WUHU216HW,2013-03-02 22:16:00,
2013-03-02 17:21:00,35.4,19.6,29.86,SSW,203,0.0,5.5,52,0.00,,,0.00,WUHU216HW,2013-03-02 22:21:00,
2013-03-02 17:26:00,35.6,19.8,29.86,SW,225,2.0,3.5,52,0.00,,,0.00,WUHU216HW,2013-03-02 22:26:00,
2013-03-02 17:31:00,35.4,20.1,29.86,SW,230,2.3,3.5,53,0.00,,,0.00,WUHU216HW,2013-03-02 22:31:00,
2013-03-02 17:36:00,35.4,20.1,29.86,SE,135,9.6,9.6,53,0.00,,,0.00,WUHU216HW,2013-03-02 22:36:00,
2013-03-02 17:41:00,35.4,20.1,29.86,SSE,149,4.6,9.6,53,0.00,,,0.00,WUHU216HW,2013-03-02 22:41:00,
2013-03-02 17:46:00,35.2,19.9,29.87,SE,135,5.1,5.8,53,0.00,,,0.00,WUHU216HW,2013-03-02 22:46:00,
2013-03-02 17:51:00,35.2,20.3,29.87,SSE,158,12.7,12.7,54,0.00,,,0.00,WUHU216HW,2013-03-02 22:51:00,
2013-03-02 17:56:00,35.2,20.3,29.87,SSW,203,0.0,12.7,54,0.00,,,0.00,WUHU216HW,2013-03-02 22:56:00,
2013-03-02 18:01:00,35.2,20.3,29.87,East,90,1.7,5.8,54,0.00,,,0.00,WUHU216HW,2013-03-02 23:01:00,
2013-03-02 18:06:00,34.8,20.0,29.87,SSE,158,8.9,8.9,54,0.00,,,0.00,WUHU216HW,2013-03-02 23:06:00,
2013-03-02 18:11:00,34.7,19.9,29.87,East,90,4.6,8.9,54,0.00,,,0.00,WUHU216HW,2013-03-02 23:11:00,
2013-03-02 18:16:00,34.5,19.7,29.87,SE,135,4.9,8.9,54,0.00,,,0.00,WUHU216HW,2013-03-02 23:16:00,
2013-03-02 18:22:00,34.3,19.5,29.87,SE,144,5.4,8.5,54,0.00,,,0.00,WUHU216HW,2013-03-02 23:22:00,
2013-03-02 18:27:00,34.3,19.5,29.87,SSE,158,2.9,8.5,54,0.00,,,0.00,WUHU216HW,2013-03-02 23:27:00,
2013-03-02 18:32:00,34.3,19.5,29.87,WSW,248,4.6,5.8,54,0.00,,,0.00,WUHU216HW,2013-03-02 23:32:00,
2013-03-02 18:37:00,33.9,19.1,29.88,SSE,152,3.3,4.9,54,0.00,,,0.00,WUHU216HW,2013-03-02 23:37:00,
2013-03-02 18:42:00,33.9,19.1,29.88,SSW,203,0.0,4.9,54,0.00,,,0.00,WUHU216HW,2013-03-02 23:42:00,
2013-03-02 18:47:00,33.6,18.8,29.88,South,180,0.0,2.2,54,0.00,,,0.00,WUHU216HW,2013-03-02 23:47:00,
2013-03-02 18:52:00,33.6,18.8,29.88,SSE,158,5.1,6.0,54,0.00,,,0.00,WUHU216HW,2013-03-02 23:52:00,
2013-03-02 18:57:00,33.6,18.8,29.88,SSE,158,4.0,6.0,54,0.00,,,0.00,WUHU216HW,2013-03-02 23:57:00,
2013-03-02 19:02:00,33.6,18.8,29.88,SSE,158,2.9,5.1,54,0.00,,,0.00,WUHU216HW,2013-03-03 00:02:00,
2013-03-02 19:07:00,33.6,18.4,29.88,SSE,158,8.5,8.5,53,0.00,,,0.00,WUHU216HW,2013-03-03 00:07:00,
2013-03-02 19:12:00,33.6,18.4,29.87,South,180,1.7,8.5,53,0.00,,,0.00,WUHU216HW,2013-03-03 00:12:00,
2013-03-02 19:17:00,33.6,18.4,29.88,SE,135,6.9,8.5,53,0.00,,,0.00,WUHU216HW,2013-03-03 00:17:00,
2013-03-02 19:22:00,33.6,17.9,29.88,South,180,1.5,6.9,52,0.00,,,0.00,WUHU216HW,2013-03-03 00:22:00,
2013-03-02 19:27:00,33.6,17.9,29.88,SSW,203,0.0,1.5,52,0.00,,,0.00,WUHU216HW,2013-03-03 00:27:00,
2013-03-02 19:32:00,33.6,17.9,29.88,SSE,158,2.0,3.3,52,0.00,,,0.00,WUHU216HW,2013-03-03 00:32:00,
2013-03-02 19:37:00,33.6,17.9,29.88,SSE,158,2.6,3.3,52,0.00,,,0.00,WUHU216HW,2013-03-03 00:37:00,
2013-03-02 19:42:00,33.6,17.9,29.88,South,180,3.3,7.8,52,0.00,,,0.00,WUHU216HW,2013-03-03 00:42:00,
2013-03-02 19:47:00,33.6,17.9,29.87,SSE,168,5.6,7.8,52,0.00,,,0.00,WUHU216HW,2013-03-03 00:47:00,
2013-03-02 19:53:00,33.6,17.9,29.88,ESE,113,7.6,7.6,52,0.00,,,0.00,WUHU216HW,2013-03-03 00:53:00,
2013-03-02 19:58:00,33.6,17.9,29.88,SSE,158,2.0,10.0,52,0.00,,,0.00,WUHU216HW,2013-03-03 00:58:00,
2013-03-02 20:03:00,33.6,17.5,29.88,SSE,168,4.3,10.0,51,0.00,,,0.00,WUHU216HW,2013-03-03 01:03:00,
2013-03-02 20:08:00,33.4,17.7,29.88,South,180,0.4,5.1,52,0.00,,,0.00,WUHU216HW,2013-03-03 01:08:00,
2013-03-02 20:13:00,33.4,17.7,29.88,SE,135,8.7,12.7,52,0.00,,,0.00,WUHU216HW,2013-03-03 01:13:00,
2013-03-02 20:18:00,33.4,17.3,29.88,SSE,158,6.9,12.7,51,0.00,,,0.00,WUHU216HW,2013-03-03 01:18:00,
2013-03-02 20:23:00,33.4,17.3,29.88,SSE,158,0.4,7.1,51,0.00,,,0.00,WUHU216HW,2013-03-03 01:23:00,
2013-03-02 20:28:00,33.4,17.3,29.88,SSE,158,4.6,6.9,51,0.00,,,0.00,WUHU216HW,2013-03-03 01:28:00,
2013-03-02 20:33:00,33.2,17.1,29.88,SE,135,9.1,9.1,51,0.00,,,0.00,WUHU216HW,2013-03-03 01:33:00,
2013-03-02 20:38:00,33.0,16.9,29.89,SSE,158,4.6,10.9,51,0.00,,,0.00,WUHU216HW,2013-03-03 01:38:00,
2013-03-02 20:43:00,33.0,16.9,29.89,South,180,2.9,10.9,51,0.00,,,0.00,WUHU216HW,2013-03-03 01:43:00,
2013-03-02 20:48:00,32.9,17.3,29.89,SSE,158,6.0,6.0,52,0.00,,,0.00,WUHU216HW,2013-03-03 01:48:00,
2013-03-02 20:53:00,32.7,16.6,29.89,South,180,3.3,9.3,51,0.00,,,0.00,WUHU216HW,2013-03-03 01:53:00,
2013-03-02 20:58:00,32.7,16.6,29.89,SE,135,5.1,9.3,51,0.00,,,0.00,WUHU216HW,2013-03-03 01:58:00,
2013-03-02 21:03:00,32.7,16.6,29.89,SSE,158,1.3,5.5,51,0.00,,,0.00,WUHU216HW,2013-03-03 02:03:00,
2013-03-02 21:08:00,32.7,17.1,29.89,SSE,158,3.8,5.1,52,0.00,,,0.00,WUHU216HW,2013-03-03 02:08:00,
2013-03-02 21:13:00,32.7,17.1,29.89,SSE,158,3.7,6.0,52,0.00,,,0.00,WUHU216HW,2013-03-03 02:13:00,
2013-03-02 21:18:00,32.7,17.1,29.90,SSE,158,3.1,6.0,52,0.00,,,0.00,WUHU216HW,2013-03-03 02:18:00,
2013-03-02 21:24:00,32.7,17.1,29.90,South,180,1.3,3.1,52,0.00,,,0.00,WUHU216HW,2013-03-03 02:24:00,
2013-03-02 21:29:00,32.7,17.1,29.90,South,180,0.0,3.1,52,0.00,,,0.00,WUHU216HW,2013-03-03 02:29:00,
2013-03-02 21:34:00,32.7,17.1,29.90,South,180,0.0,1.5,52,0.00,,,0.00,WUHU216HW,2013-03-03 02:34:00,
2013-03-02 21:39:00,32.7,17.1,29.90,SSE,158,1.3,3.5,52,0.00,,,0.00,WUHU216HW,2013-03-03 02:39:00,
2013-03-02 21:44:00,32.7,17.1,29.90,SSW,203,0.6,5.5,52,0.00,,,0.00,WUHU216HW,2013-03-03 02:44:00,
2013-03-02 21:49:00,32.7,17.1,29.90,SW,225,1.1,5.5,52,0.00,,,0.00,WUHU216HW,2013-03-03 02:49:00,
2013-03-02 21:54:00,32.7,17.1,29.90,SE,146,5.3,5.5,52,0.00,,,0.00,WUHU216HW,2013-03-03 02:54:00,
2013-03-02 21:59:00,32.9,17.3,29.90,ESE,113,0.6,5.5,52,0.00,,,0.00,WUHU216HW,2013-03-03 02:59:00,
2013-03-02 22:04:00,32.9,17.3,29.90,SSE,158,1.3,5.1,52,0.00,,,0.00,WUHU216HW,2013-03-03 03:04:00,
2013-03-02 22:09:00,32.9,17.3,29.90,SE,135,6.2,6.2,52,0.00,,,0.00,WUHU216HW,2013-03-03 03:09:00,
2013-03-02 22:14:00,32.9,17.3,29.90,SW,225,3.3,6.2,52,0.00,,,0.00,WUHU216HW,2013-03-03 03:14:00,
2013-03-02 22:19:00,32.9,17.7,29.89,SSE,160,3.1,5.3,53,0.00,,,0.00,WUHU216HW,2013-03-03 03:19:00,
2013-03-02 22:24:00,32.9,17.3,29.89,South,180,1.5,5.3,52,0.00,,,0.00,WUHU216HW,2013-03-03 03:24:00,
2013-03-02 22:30:00,32.9,17.7,29.89,SSE,158,6.0,6.0,53,0.00,,,0.00,WUHU216HW,2013-03-03 03:30:00,
2013-03-02 22:35:00,33.0,17.8,29.89,SE,135,5.8,6.0,53,0.00,,,0.00,WUHU216HW,2013-03-03 03:35:00,
2013-03-02 22:40:00,32.9,17.7,29.90,South,180,1.3,5.8,53,0.00,,,0.00,WUHU216HW,2013-03-03 03:40:00,
2013-03-02 22:45:00,32.9,17.7,29.89,SW,225,6.0,6.0,53,0.00,,,0.00,WUHU216HW,2013-03-03 03:45:00,
2013-03-02 22:50:00,33.0,17.8,29.89,SE,135,6.4,9.6,53,0.00,,,0.00,WUHU216HW,2013-03-03 03:50:00,
2013-03-02 22:55:00,33.0,17.8,29.90,SSE,158,6.2,9.6,53,0.00,,,0.00,WUHU216HW,2013-03-03 03:55:00,
2013-03-02 23:00:00,33.0,17.8,29.89,SSE,158,8.5,8.5,53,0.00,,,0.00,WUHU216HW,2013-03-03 04:00:00,
2013-03-02 23:05:00,33.0,18.3,29.89,SE,138,4.3,8.5,54,0.00,,,0.00,WUHU216HW,2013-03-03 04:05:00,
2013-03-02 23:10:00,33.0,18.3,29.89,South,180,1.5,7.3,54,0.00,,,0.00,WUHU216HW,2013-03-03 04:10:00,
2013-03-02 23:15:00,33.0,18.3,29.89,SE,135,5.8,6.7,54,0.00,,,0.00,WUHU216HW,2013-03-03 04:15:00,
2013-03-02 23:20:00,32.9,18.2,29.89,South,179,2.1,8.5,54,0.00,,,0.00,WUHU216HW,2013-03-03 04:20:00,
2013-03-02 23:25:00,32.7,17.5,29.89,South,180,2.2,8.5,53,0.00,,,0.00,WUHU216HW,2013-03-03 04:25:00,
2013-03-02 23:30:00,32.7,18.0,29.89,SSE,158,1.3,5.1,54,0.00,,,0.00,WUHU216HW,2013-03-03 04:30:00,
2013-03-02 23:35:00,32.7,18.0,29.89,SSE,158,6.0,6.0,54,0.00,,,0.00,WUHU216HW,2013-03-03 04:35:00,
2013-03-02 23:40:00,32.7,18.0,29.89,SE,135,5.1,6.0,54,0.00,,,0.00,WUHU216HW,2013-03-03 04:40:00,
2013-03-02 23:45:00,32.7,17.5,29.89,SSE,165,3.1,7.3,53,0.00,,,0.00,WUHU216HW,2013-03-03 04:45:00,
2013-03-02 23:50:00,32.7,17.5,29.88,ESE,113,6.4,7.3,53,0.00,,,0.00,WUHU216HW,2013-03-03 04:50:00,
2013-03-02 23:55:00,32.7,17.5,29.88,SSE,158,5.3,9.1,53,0.00,,,0.00,WUHU216HW,2013-03-03 04:55:00,